Terminal Aerodrome Forecast
Issued by NWS

Home | Current Version | Previous Version | Text Only | Print | Product List | Glossary Off
Versions: 1 2 3 4 5 6 7 8 9 10 11 12 13 14

000
FTUS42 KMHX 070500
TAFOAJ
TAF
KOAJ 070535Z 0706/0806 00000KT P6SM SCT250
      TEMPO 0708/0712 4SM BR
     FM071500 20007KT P6SM SCT040
      AMD LTD TO CLD VIS AND WIND=

USA.gov is the U.S. government's official web portal to all federal, state and local government web resources and services.